THORAD AGENA D DEB

Satellite information

Favourite Embed

Satellite Type and Status

DEBRISIN ORBIT

Key statistics

Satellite THORAD AGENA D DEB at a glance.

Uptime

20339

Days in orbit

Revolutions

≈ 14.2

Per day

Orbit

SSO

Sun Synchronous Orbit

Inclination

100.0

Latest

Satellite identification and parameters

Extended collection of information and parameters for THORAD AGENA D DEB.

Object identification

Identified? True

Debris? True

Object name: THORAD AGENA D DEB

International designator: 1970-025JE

Object number (NORAD): 5060

Object ID (CCSDS): 5060

Country: UNITED STATES OF AMERICA (US)

Current information (Y/N): Y

RCS size: SMALL

Orbital parameters

Period: 101.582 minutes

Inclination: 100.0005 deg

SMA: 7211.714 km

Apoapsis: 937.307 km

Periapsis: 729.85 km

RAAN: 48.9462 deg

Eccentricy: 0.01438331

Argument of periapsis: 303.4301 deg

Mean anomaly: 55.3184 deg

Mean motion: 14.17571714 rev/day

Mean motion (dot): 0.00001195 rev/day2

B* drag term: 0.00055591603 1/REarth

Two-line elements (TLE)

Creation date: Dec. 12, 2025, 10:14 a.m.

Reference frame: TEME

Reference center: EARTH

Epoch: Dec. 12, 2025, 3:02 a.m. UTC

TLE line 0: 0 THORAD AGENA D DEB

TLE line 1: 1 05060U 70025JE 25346.12706676 .00001195 00000-0 55592-3 0 9995

TLE line 2: 2 05060 100.0005 48.9462 0143833 303.4301 55.3184 14.17571714851051

Live tracking on map

Real-time ground track for satellite THORAD AGENA D DEB.

In-orbit conjunctions

A list of the most updated potential collisions computed for object THORAD AGENA D DEB.

Target Orbit TCA Probability of collision Miss distance Type
SL-8 DEB * LEO 2025-04-18 13:22:13 0.0001087611 58.0 (m) DEBRIS
CZ-6A DEB LEO 2025-04-12 03:31:44 0.0001156217 341.0 (m) DEBRIS
DELTA 1 DEB SSO 2025-02-15 20:26:08 0.000135182 234.0 (m) DEBRIS
FENGYUN 1C DEB SSO 2024-11-15 09:35:42 0.0001151892 600.0 (m) DEBRIS

Associated space launch

Meteorological research and development satellite

THORAD AGENA D DEB was lifted into orbit during the mission ‘Thorad SLV-2G Agena D | Nimbus 4’, on board a Thorad SLV-2G Agena D space rocket.

The launch took place on April 8, 1970, 8:17 a.m. from Space Launch Complex 2E.

For more information about the launch, click the button.

Launch to space Thorad SLV-2G Agena D | Nimbus 4
Thorad SLV-2G Agena D | Nimbus 4

Agency: N/A

Status: Launch Successful

Launch date: April 8, 1970, 8:17 a.m. UTC

Rocket: Thorad SLV-2G Agena D

Launch pad: Space Launch Complex 2E

Location: Vandenberg SFB, CA, USA

...

Latest news about this satellite

There are no fresh news available about this satellite. Check back as we update our databases every day.


Newsletter sign-up

Weekly statistics, charts and insights to help you stay on top of the space industry.